User: anonymous   Login
Location: Unspecified
(0.0000°N, 0.0000°E)
Time: 04:37:57
(UTC+00:00)
Language:

Afristar - Orbit

View from above orbital plane
View from above orbital plane
View from above satellite
View from above satellite

Ground track
Ground track

The orbit data is extracted from the following two-line orbital elements,

1 25515U 98063A   18292.40980478 -.00000229 +00000-0 +00000-0 0  9990
2 25515 004.2802 066.9331 0003261 183.4725 048.5600 00.99007897072850
Epoch (UTC): 19 October 2018 09:50:07
Eccentricity: 0.0003261
inclination: 4.2802°
perigee height: 36130 km
apogee height: 36158 km
right ascension of ascending node: 66.9331°
argument of perigee: 183.4725°
revolutions per day: 0.99007897
mean anomaly at epoch: 48.5600°
orbit number at epoch: 7285

The dashed part of the orbit path shows where the satellite is in the earth's shadow,  

DLR